Location: Wingville
(42.9917°N, 90.4915°W)
Time: 19:35:50
(UTC+00:00)

YUBILEINY - Pass Details

Date: 03 July 2022
Orbit: 1478 x 1509 km, 82.5° (Epoch: 08 August)

Event Time Altitude Azimuth Distance (km) Brightness Sun altitude
Rises 08:04:07 0° 360° (N) 4,650 ? -18.7°
Reaches altitude 10° 08:08:31 10° 19° (NNE) 3,660 ? -18.3°
Maximum altitude 08:13:56 17° 58° (ENE) 3,102 ? -17.8°
Drops below altitude 10° 08:19:18 10° 97° (E) 3,635 ? -17.3°
Sets 08:23:35 0° 116° (ESE) 4,605 ? -16.9°
